Time,TemperatureF,DewpointF,PressureIn,WindDirection,WindDirectionDegrees,WindSpeedMPH,WindSpeedGustMPH,Humidity,HourlyPrecipIn,Conditions,Clouds,dailyrainin,SolarRadiationWatts/m^2,SoftwareType,DateUTC
2013-05-11 00:06:00,56.0,54.0,29.98,WSW,240,0.0,0.0,94,0.00,,,0.00,0,weatherlink.com 1.10,2013-05-11 04:06:00,
2013-05-11 00:21:00,55.8,54.0,29.97,WSW,240,0.0,0.0,94,0.00,,,0.00,0,weatherlink.com 1.10,2013-05-11 04:21:00,
2013-05-11 00:36:00,55.7,54.0,29.96,WSW,241,0.0,0.0,94,0.00,,,0.00,0,weatherlink.com 1.10,2013-05-11 04:36:00,
2013-05-11 00:51:00,55.7,54.0,29.96,WSW,241,0.0,0.0,94,0.00,,,0.00,0,weatherlink.com 1.10,2013-05-11 04:51:00,
2013-05-11 01:06:00,55.7,54.0,29.95,WSW,241,0.0,0.0,94,0.00,,,0.00,0,weatherlink.com 1.10,2013-05-11 05:06:00,
2013-05-11 01:21:00,55.5,54.0,29.95,WSW,241,0.0,1.0,94,0.00,,,0.00,0,weatherlink.com 1.10,2013-05-11 05:21:00,
2013-05-11 01:36:00,55.3,54.0,29.94,WSW,241,0.0,1.0,95,0.00,,,0.00,0,weatherlink.com 1.10,2013-05-11 05:36:00,
2013-05-11 01:51:00,55.1,54.0,29.93,WSW,243,0.0,1.0,95,0.00,,,0.00,0,weatherlink.com 1.10,2013-05-11 05:51:00,
2013-05-11 02:06:00,54.9,54.0,29.93,WNW,294,0.0,1.0,95,0.00,,,0.00,0,weatherlink.com 1.10,2013-05-11 06:06:00,
2013-05-11 02:21:00,55.0,54.0,29.93,ENE,60,1.0,3.0,96,0.00,,,0.00,0,weatherlink.com 1.10,2013-05-11 06:21:00,
2013-05-11 02:36:00,55.0,54.0,29.92,NE,49,0.0,2.0,96,0.00,,,0.00,0,weatherlink.com 1.10,2013-05-11 06:36:00,
2013-05-11 02:51:00,55.1,54.0,29.91,ENE,63,2.0,4.0,96,0.00,,,0.00,0,weatherlink.com 1.10,2013-05-11 06:51:00,
2013-05-11 03:06:00,55.3,54.0,29.90,NNE,31,0.0,1.0,96,0.00,,,0.00,0,weatherlink.com 1.10,2013-05-11 07:06:00,
2013-05-11 03:21:00,55.3,54.0,29.91,NNE,30,0.0,1.0,96,0.00,,,0.00,0,weatherlink.com 1.10,2013-05-11 07:21:00,
2013-05-11 03:36:00,55.6,55.0,29.91,NNE,32,0.0,1.0,97,0.00,,,0.00,0,weatherlink.com 1.10,2013-05-11 07:36:00,
2013-05-11 03:51:00,55.9,55.0,29.92,WSW,250,1.0,3.0,97,0.00,,,0.00,0,weatherlink.com 1.10,2013-05-11 07:51:00,
2013-05-11 04:06:00,56.0,55.0,29.90,WSW,258,0.0,1.0,97,0.00,,,0.00,0,weatherlink.com 1.10,2013-05-11 08:06:00,
2013-05-11 04:21:00,56.1,55.0,29.91,West,275,1.0,4.0,97,0.00,,,0.00,0,weatherlink.com 1.10,2013-05-11 08:21:00,
2013-05-11 04:36:00,56.2,55.0,29.90,West,275,0.0,1.0,97,0.01,,,0.01,0,weatherlink.com 1.10,2013-05-11 08:36:00,
2013-05-11 04:51:00,56.1,55.0,29.89,ENE,64,0.0,3.0,97,0.02,,,0.02,0,weatherlink.com 1.10,2013-05-11 08:51:00,
2013-05-11 05:06:00,56.0,55.0,29.87,NNE,30,0.0,2.0,97,0.02,,,0.02,0,weatherlink.com 1.10,2013-05-11 09:06:00,
2013-05-11 05:21:00,56.0,55.0,29.87,NNE,30,0.0,0.0,97,0.02,,,0.02,0,weatherlink.com 1.10,2013-05-11 09:21:00,
2013-05-11 05:36:00,56.0,55.0,29.89,NNW,327,2.0,2.0,97,0.01,,,0.02,0,weatherlink.com 1.10,2013-05-11 09:36:00,
2013-05-11 05:51:00,56.0,55.0,29.90,NW,314,2.0,2.0,97,0.00,,,0.02,0,weatherlink.com 1.10,2013-05-11 09:51:00,
2013-05-11 06:06:00,56.0,55.0,29.90,West,272,0.0,1.0,97,0.00,,,0.02,9,weatherlink.com 1.10,2013-05-11 10:06:00,
2013-05-11 06:21:00,56.1,55.0,29.90,West,272,0.0,1.0,97,0.00,,,0.02,12,weatherlink.com 1.10,2013-05-11 10:21:00,
2013-05-11 06:36:00,56.3,56.0,29.90,West,272,0.0,1.0,97,0.01,,,0.03,25,weatherlink.com 1.10,2013-05-11 10:36:00,
2013-05-11 06:51:00,56.8,56.0,29.90,NW,321,0.0,2.0,97,0.01,,,0.03,28,weatherlink.com 1.10,2013-05-11 10:51:00,
2013-05-11 07:06:00,57.5,57.0,29.89,West,265,0.0,3.0,98,0.01,,,0.03,44,weatherlink.com 1.10,2013-05-11 11:06:00,
2013-05-11 07:21:00,58.3,58.0,29.88,WNW,293,0.0,2.0,98,0.00,,,0.03,53,weatherlink.com 1.10,2013-05-11 11:21:00,
2013-05-11 07:36:00,59.0,59.0,29.89,WNW,293,0.0,3.0,98,0.00,,,0.03,35,weatherlink.com 1.10,2013-05-11 11:36:00,
2013-05-11 07:51:00,59.4,59.0,29.88,South,173,3.0,5.0,98,0.00,,,0.03,58,weatherlink.com 1.10,2013-05-11 11:51:00,
2013-05-11 08:06:00,60.1,60.0,29.88,WSW,253,0.0,6.0,98,0.00,,,0.03,69,weatherlink.com 1.10,2013-05-11 12:06:00,
2013-05-11 08:21:00,60.5,60.0,29.88,WSW,246,2.0,6.0,97,0.00,,,0.03,67,weatherlink.com 1.10,2013-05-11 12:21:00,
2013-05-11 08:36:00,60.7,60.0,29.88,West,265,0.0,11.0,96,0.00,,,0.03,60,weatherlink.com 1.10,2013-05-11 12:36:00,
2013-05-11 08:52:00,60.8,60.0,29.88,WSW,252,2.0,5.0,96,0.00,,,0.03,49,weatherlink.com 1.10,2013-05-11 12:52:00,
2013-05-11 09:07:00,61.2,60.0,29.88,WSW,248,0.0,4.0,96,0.00,,,0.03,144,weatherlink.com 1.10,2013-05-11 13:07:00,
2013-05-11 09:22:00,61.9,60.0,29.88,SSW,213,2.0,5.0,94,0.00,,,0.03,141,weatherlink.com 1.10,2013-05-11 13:22:00,
2013-05-11 09:37:00,62.8,61.0,29.88,SW,232,3.0,8.0,93,0.00,,,0.03,332,weatherlink.com 1.10,2013-05-11 13:37:00,
2013-05-11 09:52:00,63.8,61.0,29.87,West,275,7.0,7.0,90,0.00,,,0.03,183,weatherlink.com 1.10,2013-05-11 13:52:00,
2013-05-11 10:07:00,64.9,62.0,29.87,WSW,258,4.0,10.0,89,0.00,,,0.03,239,weatherlink.com 1.10,2013-05-11 14:07:00,
2013-05-11 10:22:00,66.1,62.0,29.86,SW,215,5.0,8.0,86,0.00,,,0.03,218,weatherlink.com 1.10,2013-05-11 14:22:00,
2013-05-11 10:37:00,67.4,62.0,29.87,NE,44,5.0,10.0,84,0.00,,,0.03,151,weatherlink.com 1.10,2013-05-11 14:37:00,
2013-05-11 10:52:00,67.6,62.0,29.88,ESE,111,4.0,11.0,82,0.00,,,0.03,158,weatherlink.com 1.10,2013-05-11 14:52:00,
2013-05-11 11:07:00,67.4,63.0,29.87,West,277,0.0,5.0,85,0.00,,,0.03,149,weatherlink.com 1.10,2013-05-11 15:07:00,
2013-05-11 11:22:00,66.4,62.0,29.86,WNW,290,1.0,5.0,85,0.00,,,0.03,156,weatherlink.com 1.10,2013-05-11 15:22:00,
2013-05-11 11:37:00,65.5,62.0,29.87,West,278,1.0,11.0,87,0.00,,,0.03,42,weatherlink.com 1.10,2013-05-11 15:37:00,
2013-05-11 11:52:00,63.9,61.0,29.88,West,266,3.0,11.0,90,0.03,,,0.06,26,weatherlink.com 1.10,2013-05-11 15:52:00,
2013-05-11 12:07:00,62.6,60.0,29.88,WNW,298,2.0,10.0,92,0.07,,,0.10,39,weatherlink.com 1.10,2013-05-11 16:07:00,
2013-05-11 12:22:00,61.7,60.0,29.87,NW,322,6.0,7.0,93,0.11,,,0.14,39,weatherlink.com 1.10,2013-05-11 16:22:00,
2013-05-11 12:37:00,61.2,60.0,29.87,SSW,192,4.0,10.0,95,0.14,,,0.17,47,weatherlink.com 1.10,2013-05-11 16:37:00,
2013-05-11 12:52:00,60.9,60.0,29.86,WNW,300,0.0,10.0,95,0.14,,,0.20,51,weatherlink.com 1.10,2013-05-11 16:52:00,
2013-05-11 13:07:00,60.9,60.0,29.85,North,9,1.0,11.0,96,0.14,,,0.24,84,weatherlink.com 1.10,2013-05-11 17:07:00,
2013-05-11 13:22:00,61.0,60.0,29.86,WSW,241,2.0,8.0,96,0.09,,,0.24,77,weatherlink.com 1.10,2013-05-11 17:22:00,
2013-05-11 13:37:00,61.3,60.0,29.85,South,175,5.0,8.0,96,0.06,,,0.24,141,weatherlink.com 1.10,2013-05-11 17:37:00,
2013-05-11 13:52:00,62.1,61.0,29.85,West,278,1.0,5.0,97,0.04,,,0.24,91,weatherlink.com 1.10,2013-05-11 17:52:00,
2013-05-11 14:07:00,61.8,60.0,29.85,WSW,257,6.0,11.0,95,0.00,,,0.24,56,weatherlink.com 1.10,2013-05-11 18:07:00,
2013-05-11 14:22:00,61.4,60.0,29.85,West,271,1.0,7.0,95,0.00,,,0.24,47,weatherlink.com 1.10,2013-05-11 18:22:00,
2013-05-11 14:37:00,61.3,60.0,29.84,NNW,332,0.0,5.0,95,0.00,,,0.24,49,weatherlink.com 1.10,2013-05-11 18:37:00,
2013-05-11 14:52:00,61.7,61.0,29.83,WNW,297,0.0,7.0,96,0.00,,,0.24,49,weatherlink.com 1.10,2013-05-11 18:52:00,
2013-05-11 15:07:00,61.9,61.0,29.83,WNW,284,2.0,5.0,95,0.00,,,0.24,58,weatherlink.com 1.10,2013-05-11 19:07:00,
2013-05-11 15:22:00,62.2,61.0,29.82,SSE,167,0.0,4.0,95,0.00,,,0.24,58,weatherlink.com 1.10,2013-05-11 19:22:00,
2013-05-11 15:37:00,62.5,61.0,29.81,West,265,0.0,4.0,96,0.00,,,0.24,97,weatherlink.com 1.10,2013-05-11 19:37:00,
2013-05-11 15:52:00,63.5,62.0,29.80,NW,311,1.0,8.0,96,0.00,,,0.24,227,weatherlink.com 1.10,2013-05-11 19:52:00,
2013-05-11 16:07:00,64.7,63.0,29.80,SSE,152,0.0,6.0,94,0.00,,,0.24,260,weatherlink.com 1.10,2013-05-11 20:07:00,
2013-05-11 16:22:00,65.9,64.0,29.79,East,90,1.0,5.0,93,0.00,,,0.24,211,weatherlink.com 1.10,2013-05-11 20:22:00,
2013-05-11 16:37:00,65.7,63.0,29.80,NE,37,2.0,7.0,90,0.00,,,0.24,123,weatherlink.com 1.10,2013-05-11 20:37:00,
2013-05-11 16:52:00,64.9,62.0,29.80,ENE,77,2.0,4.0,90,0.00,,,0.24,72,weatherlink.com 1.10,2013-05-11 20:52:00,
2013-05-11 17:07:00,64.1,61.0,29.81,SSW,194,1.0,7.0,90,0.00,,,0.24,25,weatherlink.com 1.10,2013-05-11 21:07:00,
2013-05-11 17:22:00,63.5,61.0,29.82,NW,317,1.0,10.0,91,0.00,,,0.24,16,weatherlink.com 1.10,2013-05-11 21:22:00,
2013-05-11 17:37:00,63.0,61.0,29.83,WSW,258,7.0,7.0,92,0.00,,,0.24,0,weatherlink.com 1.10,2013-05-11 21:37:00,
2013-05-11 17:52:00,62.1,60.0,29.83,West,281,9.0,11.0,94,0.01,,,0.25,5,weatherlink.com 1.10,2013-05-11 21:52:00,
2013-05-11 18:07:00,61.6,60.0,29.82,SSW,196,1.0,6.0,95,0.06,,,0.30,9,weatherlink.com 1.10,2013-05-11 22:07:00,
2013-05-11 18:22:00,61.2,60.0,29.81,West,261,1.0,6.0,95,0.13,,,0.37,5,weatherlink.com 1.10,2013-05-11 22:22:00,
2013-05-11 18:37:00,61.1,60.0,29.81,WSW,249,0.0,4.0,96,0.15,,,0.39,9,weatherlink.com 1.10,2013-05-11 22:37:00,
2013-05-11 18:52:00,61.2,60.0,29.80,SSW,205,0.0,6.0,97,0.16,,,0.41,25,weatherlink.com 1.10,2013-05-11 22:52:00,
2013-05-11 19:07:00,61.3,61.0,29.79,WSW,244,0.0,5.0,97,0.11,,,0.41,18,weatherlink.com 1.10,2013-05-11 23:07:00,
2013-05-11 19:22:00,61.2,60.0,29.78,SW,220,3.0,4.0,97,0.04,,,0.00,5,weatherlink.com 1.10,2013-05-11 23:22:00,
2013-05-11 19:37:00,61.0,60.0,29.78,SW,218,0.0,5.0,97,0.02,,,0.00,0,weatherlink.com 1.10,2013-05-11 23:37:00,
2013-05-11 19:52:00,60.7,60.0,29.77,WNW,286,3.0,3.0,97,0.00,,,0.00,0,weatherlink.com 1.10,2013-05-11 23:52:00,
2013-05-11 20:07:00,60.3,60.0,29.78,WNW,296,0.0,7.0,97,0.00,,,0.00,0,weatherlink.com 1.10,2013-05-12 00:07:00,
2013-05-11 20:22:00,59.8,59.0,29.77,SW,234,1.0,9.0,97,0.00,,,0.00,0,weatherlink.com 1.10,2013-05-12 00:22:00,
2013-05-11 20:37:00,59.6,59.0,29.78,SSW,211,0.0,8.0,97,0.00,,,0.00,0,weatherlink.com 1.10,2013-05-12 00:37:00,
2013-05-11 20:52:00,59.5,59.0,29.79,West,263,1.0,5.0,97,0.00,,,0.00,0,weatherlink.com 1.10,2013-05-12 00:52:00,
2013-05-11 21:07:00,59.4,59.0,29.78,SSW,194,0.0,3.0,97,0.00,,,0.00,0,weatherlink.com 1.10,2013-05-12 01:07:00,
2013-05-11 21:22:00,59.3,59.0,29.78,West,259,1.0,6.0,97,0.00,,,0.00,0,weatherlink.com 1.10,2013-05-12 01:22:00,
2013-05-11 21:37:00,59.2,58.0,29.78,WSW,254,0.0,5.0,97,0.00,,,0.00,0,weatherlink.com 1.10,2013-05-12 01:37:00,
2013-05-11 21:52:00,59.1,58.0,29.79,WSW,247,0.0,7.0,97,0.00,,,0.00,0,weatherlink.com 1.10,2013-05-12 01:52:00,
2013-05-11 22:08:00,59.0,59.0,29.77,WSW,257,0.0,5.0,98,0.00,,,0.00,0,weatherlink.com 1.10,2013-05-12 02:08:00,
2013-05-11 22:23:00,58.9,58.0,29.77,West,269,2.0,3.0,98,0.00,,,0.00,0,weatherlink.com 1.10,2013-05-12 02:23:00,
2013-05-11 22:38:00,58.9,58.0,29.77,WSW,241,0.0,4.0,98,0.00,,,0.00,0,weatherlink.com 1.10,2013-05-12 02:38:00,
2013-05-11 22:53:00,58.9,58.0,29.76,SSW,200,2.0,5.0,98,0.00,,,0.00,0,weatherlink.com 1.10,2013-05-12 02:53:00,
2013-05-11 23:08:00,58.8,58.0,29.76,SSW,211,6.0,6.0,98,0.00,,,0.00,0,weatherlink.com 1.10,2013-05-12 03:08:00,
2013-05-11 23:23:00,58.7,58.0,29.76,SW,234,0.0,3.0,98,0.00,,,0.00,0,weatherlink.com 1.10,2013-05-12 03:23:00,
2013-05-11 23:38:00,58.6,58.0,29.76,SW,232,1.0,3.0,98,0.00,,,0.00,0,weatherlink.com 1.10,2013-05-12 03:38:00,
2013-05-11 23:53:00,58.6,58.0,29.75,West,279,3.0,4.0,98,0.00,,,0.00,0,weatherlink.com 1.10,2013-05-12 03:53:00,